STARLINK-11170, 60068

Orbit data source: Space-Track

STARLINK-11170, 60068 is a payload satellite owned by SpaceX/Seattle (US) in LEO that was launched on Wed, 19 Jun 2024 UTC via an FALCON 9 launch vehicle from the Air Force Western Test Range (AFWTR). Payload-class satellites include a variety of spacecraft equipped with specific instruments for various scientific and technological missions. These include communications satellites like Starlink; space stations such as the ISS; scientific satellites like the Hubble; Earth observation satellites from companies like Planet Labs, Umbra, and HawkEye 360; GPS; miniature CubeSats for education and research; and military/defense satellites.

Loading next visibility...
Identifier
60068, 2024-113K
Orbit
LEO
Last TLE update
13 hours ago
Origin
Manufacturer
SpaceX/Seattle
Mission
Operational Commercial Communications
Bus & Motor
STARLINK V2M, Unknown motor
Mass
730 kg wet, ~700 kg dry
Launch date (UTC)
2024-06-19 (11 months ago)
Launch vehicle
FALCON 9
Launch site
Air Force Western Test Range (AFWTR)
Object type
Payload
Rocket body
Debris
Shape & HBR
Box + 2 Pan, 29 m
Radar Cross Section
33.884 m², Large (>1 m²)

Expand to show TLE details & history

TLE from 13 hours ago
0 STARLINK-11170
1 60068U 24113K   25131.30684687  .00002415  00000-0  24759-4 0  9998
2 60068  53.1597 242.2065 0000167  72.3926 287.7110 15.69724268 52425
Epoch: 2025-05-11T07:21Z
Definitive object data (Epoch: 2025-05-11T07:21:51.569Z)
Latitude
-0.00004°
Longitude
-97.59457°
Altitude
360.567 km
Speed
7.694 km/s
True Right ascension
16h 08m 49s
True Declination
0° 00' 00"
Sunlit
Object was in full shadow at TLE epoch
Visualization TLE readout
Latitude
-17.40848°
Longitude
93.22626°
Altitude
364.496 km
Speed
7.691 km/s
Apparent Right ascension
05h 12m 29s
Apparent Declination
-75° 44' 00"
Sunlit
Object is in daylight
Visualization observer readout
Local Sidereal Time
04:45:41
Azimuth
178.171° S
Elevation
-25.732°
Doppler factor
1
Orbital elements
Apogee altitude
360.059 km
Perigee altitude
359.834 km
Semi-major axis
6,738.084 km
Eccentricity
0.0000167
Inclination
53.1597°
RAAN
242.2065°
Arg. of periapsis
72.3926°
True anomaly
287.70918°
Mean anomaly
287.711°
Eccentric anomaly
287.71009°
Mean motion
3.92409 °/min
BSTAR
0.000024759
Orbital period
91.74 mins
Loading maneuver chart data...
Loading SW <> Apogee altitude chart data...
Loading historical data...
Loading historical data...
Loading historical data...
Loading historical data...
Loading historical data...
Loading historical data...
Loading historical data...

STARLINK-11170 Visibility forecast

Observer location: undefined°, undefined°

Span
Click to sort rows by Start time (UTC) header in descending order
Start Az.
Max El. time (UTC)
Max El. Az.
Max El.
End time (UTC)
End Az.
5 mins2025-05-12 09:30:40.142Z203.102° SW2025-05-12 09:32:40.142Z154.263° SSE31.777°2025-05-12 09:35:40.142Z64.309° ENE
|